Contact Us:
Email: info@sawbill.com
Phone: (218)663-7150
Fax: (218)663-7980
Mail: 4620 Sawbill Trail
Box 2129
Tofte, MN 55615


Powered by
Movable Type 3.15
 
Sawbill Weather History
Check out the 7 Day Weather Forecast for the Superior National Forest.
Date High
Temperature
Low
Temperature
Barometric
Pressure
Relative
Humidity 7AM
9 AM
Temperature
Moisture Snow
11/8/17 24 9 30.10 63% 10 .15" 1.75"
11/7/17 22 15 30.10 72% 20 Trace Trace
11/6/17 26 15 30.20 67% 15 Trace Trace
11/5/17 32 17 30.08 66% 18 Trace Trace
11/4/17 34 26 29.86 93% 32 .46" 3.5"
11/3/17 26 22 30.16 81% 26 0"
11/2/17 34 23 30.24 72% 24 0"
11/1/17 31 24 29.88 89% 31 .2" 2"
10/31/17 28 20 29.92 78% 24 0"
10/30/17 33 24 29.90 78% 24 0"
10/29/17 33 27 29.74 90% 32 Trace Trace
10/28/17 28 24 29.82 88% 27 0"
10/27/17 32 26 29.40 80% 26 Trace Trace
10/26/17 38 28 29.90 91% 28 .75" 6.75"
10/25/17 41 33 29.82 94% 36 0"
10/24/17 42 31 29.86 90% 32 0"
10/23/17 57 34 29.86 92% 34 .03"
10/22/17 54 39 29.86 68% 46 0"
10/21/17 59 48 29.88 75% 48 .02"
10/20/17 67 39 29.90 62% 54 0"
10/19/17 59 38 29.98 64% 38 0"
10/18/17 63 42 29.94 34% 42 0"
10/17/17 63 36 29.86 79% 44 0"
10/16/17 58 35 30.06 86% 38 0"
10/15/17 50 32 30.06 80% 35 0"
10/14/17 57 24 30.12 95% 30 .16"
10/13/17 51 32 30.12 68% 32 0"
10/12/17 52 46 30.06 33% 47 0"
10/11/17 52 30 30.10 93% 49 0"
10/10/17 49 30 30.18 71% 30 0"
10/9/17 46 31 30.18 72% 31 0"
10/8/17 56 42 30.02 39% 42 0"
10/7/17 58 42 29.74 69% 50 0"
10/6/17 54 34 29.76 83% 42 0"
10/5/17 54 34 30.06 77% 34 0"
10/4/17 51 41 30.08 86% 41 0"
10/3/17 62 43 30.10 88% 44 .08"
10/2/17 61 51 30.00 98% 60 1.44"
10/1/17 59 50 30.04 85% 51 .05"
9/30/17 57 40 30.10 93% 49 0"
9/29/17 58 41 30.18 85% 49 0"
9/28/17 59 46 30.18 86% 46 .28"
9/27/17 52 42 30.06 96% 46 Trace
9/26/17 55 45 30.04 94% 45 0"
9/25/17 59 50 30.00 98% 51 .2"
9/24/17 75 36 30.02 84% 57 .5"
9/23/17 76 61 30.00 84% 70 .02"
9/22/17 82 59 30.00 89% 58 .19"
9/21/17 72 35 30.00 75% 55 0"
9/20/17 69 42 30.00 92% 60 .79"
9/19/17 71 52 30.02 87% 58 0"
9/18/17 61 35 30.00 92% 47 0"
9/17/17 60 38 30.00 80% 51 .06"
9/16/17 66 50 30.00 98% 50 .48"
9/15/17 59 53 30.00 98% 56 .5"
9/14/17 77 53 30.00 98% 59 .98"
9/13/17 82 64 29.92 81% 70 0"
9/12/17 75 46 29.92 74% 53 0"
9/11/17 72 46 30.08 72% 46 0"
9/10/17 66 48 30.12 78% 59 0"
9/9/17 61 38 30.26 90% 48 0"
9/8/17 60 37 30.28 78% 38 0"
9/7/17 60 40 30.12 88% 51 .19"
9/6/17 54 43 30.02 91% 47 Trace
9/5/17 65 43 30.04 87% 46 0"
9/4/17 64 50 30.10 90% 54 0"
9/3/17 73 48 30.10 71% 64 0"
9/2/17 70 51 30.20 91% 64 0"
9/1/17 68 46 30.20 79% 57 0"
8/31/17 70 35 30.20 79% 56 0"
8/30/17 68 44 30.20 72% 44 0"
8/29/17 73 48 30.10 51% 60 0"
8/28/17 64 58 30.10 90% 50 0"
8/27/17 61 56 30.02 96% 57 .24"
8/26/17 61 54 30.02 98% 56 .74"
8/25/17 65 37 30.16 71% 57 0"
8/24/17 62 36 30.16 69% 37 0"
8/23/17 61 39 30.14 78% 45 0"
8/22/17 67 50 30.00 76% 59 .27"
8/21/17 66 53 30.00 78% 54 Trace
8/20/17 75 52 30.06 47% 57 0"
8/19/17 73 51 29.98 94% 62 0"
8/18/17 68 57 29.96 97% 59 Trace
8/17/17 68 57 29.92 89% 59 .97"
8/16/17 70 52 29.90 98% 52 .47"
8/15/17 70 47 30.02 46% 49 0"
8/14/17 65 51 30.04 71% 59 .53"
8/13/17 72 54 30.00 89% 58 .04"
8/12/17 74 54 30.06 80% 54 0"
8/11/17 72 52 30.10 84% 50 0"
8/10/17 62 52 30.08 98% 52 .63"
8/9/17 70 56 30.04 95% 58 .40"
8/8/17 73 56 30.08 90% 56 .59"
8/7/17 73 50 30.08 66% 63 0"
8/5/17 69 50 30.04 76% 51 0"
8/4/17 67 53 30.00 90% 54 Trace
8/3/17 67 50 30.12 71% 53 0"
8/1/17 77 54 30.12 71% 55 .14"
7/31/17 83 64 30.06 63% 63 .09"
7/30/17 84 62 30.14 83% 64 0"
7/29/17 81 53 30.14 77% 53 0"
7/28/17 78 51 30.14 71% 53 0"
7/27/17 74 51 30.12 74% 51 0"
7/25/17 76 58 30.08 72% 58 0"
7/24/17 73 50 30.04 71% 62 .04"
7/23/17 74 49 30.10 74% 50 0"
7/23/17 71 48 30.10 84% 57 0"
7/22/17 75 55 30.00 84% 58 .03"
7/21/17 76 55 30.00 72% 55 Trace
7/20/17 76 57 30.04 78% 58 0"
7/19/17 72 53 30.02 86% 57 0"
7/17/17 75 46 30.02 30% 55 0"
7/16/17 68 45 30.08 75% 46 0"
7/15/17 75 50 30.14 72% 51 .70"
7/14/17 74 51 30.04 88% 59 0"
7/13/17 57 50 30.12 94% 51 .23"
7/12/17 59 50 30.08 98% 50 .92"
7/11/17 73 56 29.98 92% 56 0"
7/10/17 76 54 30.00 80% 57 0"
7/9/17 74 54 30.00 76% 55 0"
7/8/17 75 53 30.02 88% 57 .07"
7/7/17 69 52 30.02 91% 58 0"
7/6/17 80 59 30.02 73% 59 .36"
7/5/17 80 60 30.02 82% 61 0"
7/4/17 76 52 30.08 97% 60 .34"
7/3/17 72 51 30.14 76% 52 0"
7/2/17 67 50 30.10 78% 51 0"
7/1/17 68 53 30.04 83% 56 .10"
6/30/17 64 55 29.96 89% 59 .03"
6/29/17 61 56 29.88 97% 58 .06"
6/28/17 63 54 29.82 98% 57 .94"
6/27/17 71 48 29.98 78% 53 0"
6/26/17 63 45 30.06 90% 51 .04"
6/25/17 62 50 30.02 91% 53 1.84"
6/24/17 57 52 30.02 91% 52 .62"
6/23/17 64 54 29.94 96% 56 .06"
6/22/17 71 50 29.84 66% 55 .12"
6/21/17 69 49 29.86 98% 57 .47"
6/20/17 62 48 29.98 85% 49 0"
6/19/17 59 52 29.94 83% 54 .07"
 


Home I Trip Planning I Rentals and Outfitting I Reservations I Campgrounds I Sawbill Store I Sawbill News I Contact

© 1997 - 2017, Sawbill Canoe Outfitters, Inc. I Privacy Policy